Date String (YYYY-MM-DD hh:mm:ss) UTC,Instrument flags,Ambient pressure (hPa),Sample flow (lpm),Bypass flow (lpm),Sample temperature (°C),Ambient temperature (°C),ASC tube jacket temperature (°C),LED temperature (°C),Box temperature (°C),Sample RH (%),Span deviation,Mass concentration (μg/m³),Mass concentration (μg/m³),Mass concentration (μg/m³)
DateTimeUTC,F1_M11,P_M11,Q1_M11,Q2_M11,T1_M11,T2_M11,T3_M11,T4_M11,T5_M11,U1_M11,ZSPAN_M11,X0_M11,X2_M11,X1_M11
2022-10-18 13:00:00,,0833.1,5.00,0.00,24.7,23.0,00.0,33.7,26.6,15.3,0001.3,0015.10,0006.98,0005.87
2022-10-18 13:01:00,,0833.1,4.99,0.00,24.7,23.0,00.0,33.7,26.6,15.3,0001.3,0015.54,0007.06,0005.96
2022-10-18 13:02:00,,0833.1,4.99,0.00,24.7,23.0,00.0,33.7,26.6,15.2,0001.5,0015.39,0007.15,0006.06
2022-10-18 13:03:00,,0833.1,5.01,0.00,24.7,23.1,00.0,33.6,26.6,15.3,0001.8,0015.33,0007.28,0006.17
2022-10-18 13:04:00,,0833.1,4.99,0.00,24.7,23.1,00.0,33.6,26.6,15.2,0001.8,0015.32,0007.38,0006.26
2022-10-18 13:05:00,,0833.1,5.02,0.00,24.7,23.1,00.0,33.6,26.6,15.2,0002.4,0015.28,0007.49,0006.34
2022-10-18 13:06:00,,0833.1,5.01,0.00,24.7,23.1,00.0,33.6,26.6,15.2,0002.6,0014.87,0007.56,0006.42
2022-10-18 13:07:00,,0833.0,4.99,0.00,24.7,23.1,00.0,33.6,26.6,15.2,0002.9,0015.04,0007.66,0006.48
2022-10-18 13:08:00,,0833.1,5.01,0.00,24.7,23.1,00.0,33.6,26.6,15.2,0002.8,0015.40,0007.72,0006.53
2022-10-18 13:09:00,,0833.1,5.00,0.00,24.7,23.1,00.0,33.6,26.6,15.2,0002.2,0015.70,0007.77,0006.56
2022-10-18 13:10:00,,0833.0,4.99,0.00,24.7,23.2,00.0,33.6,26.6,15.2,0002.4,0015.83,0007.78,0006.60
2022-10-18 13:11:00,,0833.1,5.02,0.00,24.8,23.2,00.0,33.6,26.7,15.2,0002.2,0015.94,0007.77,0006.62
2022-10-18 13:12:00,,0833.1,4.99,0.00,24.8,23.2,00.0,33.6,26.6,15.2,0002.7,0015.96,0007.78,0006.63
2022-10-18 13:13:00,,0833.1,5.02,0.00,24.7,23.2,00.0,33.6,26.6,15.1,0002.9,0016.79,0007.82,0006.65
2022-10-18 13:14:00,,0833.1,5.00,0.00,24.7,23.2,00.0,33.6,26.6,15.2,0002.5,0016.89,0007.85,0006.66
2022-10-18 13:15:00,,0833.1,4.99,0.00,24.7,23.2,00.0,33.6,26.6,15.1,0002.6,0017.01,0007.81,0006.66
2022-10-18 13:16:00,,0833.0,5.01,0.00,24.7,23.3,00.0,33.6,26.6,15.1,0002.1,0017.26,0007.75,0006.66
2022-10-18 13:17:00,,0833.1,4.98,0.00,24.8,23.3,00.0,33.6,26.6,15.1,0002.1,0017.93,0007.70,0006.63
2022-10-18 13:18:00,,0833.1,5.02,0.00,24.8,23.3,00.0,33.6,26.6,15.1,0000.0,0018.39,0007.63,0006.61
2022-10-18 13:19:00,,0833.1,4.99,0.00,24.8,23.3,00.0,33.6,26.6,15.1,0000.0,0017.82,0007.60,0006.59
2022-10-18 13:20:00,,0833.1,5.01,0.00,24.8,23.3,00.0,33.6,26.6,15.1,0000.0,0017.78,0007.56,0006.57
2022-10-18 13:21:00,,0833.1,4.98,0.00,24.8,23.3,00.0,33.6,26.6,15.1,0000.0,0017.06,0007.50,0006.55
2022-10-18 13:22:00,,0833.1,5.02,0.00,24.8,23.3,00.0,33.6,26.6,15.1,0000.0,0017.95,0007.50,0006.52
2022-10-18 13:23:00,,0833.2,4.99,0.00,24.8,23.3,00.0,33.6,26.6,15.1,0000.0,0018.26,0007.51,0006.51
2022-10-18 13:24:00,,0833.2,5.01,0.00,24.8,23.4,00.0,33.6,26.7,15.1,0000.0,0017.73,0007.51,0006.52
2022-10-18 13:25:00,,0833.1,4.98,0.00,24.8,23.4,00.0,33.6,26.7,15.1,0000.0,0018.04,0007.46,0006.51
2022-10-18 13:26:00,,0833.2,5.02,0.00,24.8,23.4,00.0,33.6,26.7,15.1,0000.0,0019.27,0007.45,0006.51
2022-10-18 13:27:00,,0833.2,4.99,0.00,24.8,23.4,00.0,33.6,26.7,15.1,0001.0,0019.59,0007.45,0006.51
2022-10-18 13:28:00,,0833.2,5.01,0.00,24.8,23.4,00.0,33.6,26.7,15.1,0000.8,0019.86,0007.43,0006.50
2022-10-18 13:29:00,,0833.2,5.01,0.00,24.8,23.4,00.0,33.6,26.7,15.1,0000.9,0019.22,0007.38,0006.49
2022-10-18 13:30:00,,0833.2,4.99,0.00,24.8,23.4,00.0,33.6,26.7,15.1,0000.6,0019.53,0007.36,0006.50
2022-10-18 13:31:00,,0833.2,5.02,0.00,24.8,23.4,00.0,33.6,26.8,14.9,0000.4,0019.96,0007.39,0006.48
2022-10-18 13:32:00,,0833.2,5.00,0.00,24.8,23.4,00.0,33.6,26.8,14.7,0000.6,0019.91,0007.38,0006.42
2022-10-18 13:33:00,,0833.2,5.00,0.00,24.8,23.4,00.0,33.6,26.8,14.9,0001.3,0018.44,0007.32,0006.40
2022-10-18 13:34:00,,0833.3,5.01,0.00,24.8,23.5,00.0,33.6,26.7,14.8,0002.2,0017.97,0007.25,0006.37
2022-10-18 13:35:00,,0833.3,4.98,0.00,24.9,23.5,00.0,33.6,26.7,14.8,0002.1,0017.17,0007.20,0006.35
2022-10-18 13:36:00,,0833.3,5.00,0.00,24.9,23.4,00.0,33.6,26.8,14.7,0002.3,0016.56,0007.15,0006.30
2022-10-18 13:37:00,,0833.3,5.01,0.00,24.9,23.4,00.0,33.6,26.8,14.4,0002.3,0015.28,0007.12,0006.25
2022-10-18 13:38:00,,0833.3,4.99,0.00,24.9,23.4,00.0,33.7,26.7,14.2,0000.6,0014.49,0007.07,0006.19
2022-10-18 13:39:00,,0833.3,5.01,0.00,24.9,23.4,00.0,33.7,26.8,13.8,0000.0,0013.84,0006.95,0006.07
2022-10-18 13:40:00,,0833.3,4.99,0.00,24.9,23.4,00.0,33.7,26.8,13.5,0000.0,0013.22,0006.82,0005.91
2022-10-18 13:41:00,,0833.3,5.01,0.00,24.9,23.4,00.0,33.7,26.7,13.6,0000.0,0012.71,0006.69,0005.77
2022-10-18 13:42:00,,0833.3,4.99,0.00,24.9,23.4,00.0,33.7,26.7,13.7,0000.0,0013.12,0006.53,0005.66
2022-10-18 13:43:00,,0833.3,4.99,0.00,24.9,23.4,00.0,33.7,26.8,13.5,0000.0,0013.09,0006.36,0005.57
2022-10-18 13:44:00,,0833.4,5.01,0.00,24.9,23.4,00.0,33.7,26.8,13.4,0000.0,0013.45,0006.24,0005.45
2022-10-18 13:45:00,,0833.4,4.99,0.00,24.9,23.4,00.0,33.7,26.8,13.4,0000.0,0012.66,0006.14,0005.33
2022-10-18 13:46:00,,0833.4,5.01,0.00,24.9,23.4,00.0,33.7,26.8,13.3,0000.0,0012.40,0005.99,0005.19
2022-10-18 13:47:00,,0833.4,5.00,0.00,24.9,23.4,00.0,33.7,26.7,13.2,0000.0,0012.71,0005.86,0005.08
2022-10-18 13:48:00,,0833.4,5.00,0.00,24.9,23.4,00.0,33.7,26.8,13.2,0000.0,0013.09,0005.74,0004.96
2022-10-18 13:49:00,,0833.5,5.01,0.00,24.9,23.4,00.0,33.7,26.8,13.5,0000.0,0012.94,0005.65,0004.89
2022-10-18 13:50:00,,0833.4,4.99,0.00,24.9,23.4,00.0,33.7,26.8,13.9,0000.0,0012.82,0005.62,0004.88
2022-10-18 13:51:00,,0833.4,5.02,0.00,24.9,23.4,00.0,33.7,26.7,14.2,0000.0,0012.75,0005.67,0004.96
2022-10-18 13:52:00,,0833.4,4.99,0.00,24.8,23.4,00.0,33.7,26.7,14.3,0000.0,0012.79,0005.75,0005.05
2022-10-18 13:53:00,,0833.4,4.99,0.00,24.8,23.4,00.0,33.7,26.7,14.1,0000.0,0013.01,0005.80,0005.11
2022-10-18 13:54:00,,0833.5,4.99,0.00,24.8,23.4,00.0,33.7,26.7,13.3,0000.0,0013.08,0005.83,0005.12
2022-10-18 13:55:00,,0833.5,5.02,0.00,24.8,23.4,00.0,33.7,26.7,12.7,0000.0,0013.38,0005.77,0005.05
2022-10-18 13:56:00,,0833.5,4.99,0.00,24.9,23.4,00.0,33.7,26.8,12.9,0000.0,0014.37,0005.67,0004.99
2022-10-18 13:57:00,,0833.5,5.00,0.00,24.8,23.4,00.0,33.7,26.7,12.6,0000.0,0014.34,0005.61,0004.95
2022-10-18 13:58:00,,0833.5,5.01,0.00,24.8,23.4,00.0,33.7,26.7,12.5,0000.0,0013.98,0005.56,0004.87
2022-10-18 13:59:00,,0833.5,5.00,0.00,24.8,23.4,00.0,33.7,26.7,12.5,0000.0,0013.21,0005.45,0004.79
